Retour au catalogue

THORAD AGENA D DEB

ActifLEO
NORAD 4951·DEBRIS·🇺🇸 United States

Lancé Apr 8, 1970 depuis Vandenberg Space Force Base

Loading…

Prochains Passages

TLE

Source: Space-Track
1 04951U 70025GM  26228.44021336  .00000077  00000-0  16496-3 0  9999
2 04951 100.1867 226.8286 0017480 338.1583 180.9264 13.61272317791032

Suivez THORAD AGENA D DEB en temps réel avec AllMySat

Download on the App Store